Time,TemperatureF,DewpointF,PressureIn,WindDirection,WindDirectionDegrees,WindSpeedMPH,WindSpeedGustMPH,Humidity,HourlyPrecipIn,Conditions,Clouds,dailyrainin,SolarRadiationWatts/m^2,SoftwareType,DateUTC
2013-10-04 01:00:00,60.7,59.6,30.08,South,178,0.0,0.0,96,0.00,,OVC018,0.00,0.00,VWS V14.00,2013-10-04 05:00:00,
2013-10-04 02:00:00,60.7,59.6,30.08,SE,141,0.0,3.0,96,0.00,,OVC018,0.00,0.00,VWS V14.00,2013-10-04 06:00:00,
2013-10-04 03:00:00,59.0,57.9,30.07,SE,141,0.0,0.0,96,0.00,,OVC018,0.00,0.00,VWS V14.00,2013-10-04 07:00:00,
2013-10-04 04:00:00,58.9,58.0,30.06,SE,141,0.0,0.0,97,0.00,,OVC018,0.00,0.00,VWS V14.00,2013-10-04 08:00:00,
2013-10-04 05:00:00,58.2,57.4,30.08,SE,141,0.0,0.0,97,0.00,,OVC018,0.00,0.00,VWS V14.00,2013-10-04 09:00:00,
2013-10-04 06:00:00,57.7,56.9,30.11,SE,141,0.0,0.0,97,0.00,,OVC018,0.00,0.00,VWS V14.00,2013-10-04 10:00:00,
2013-10-04 07:00:00,57.2,56.4,30.14,South,179,0.0,0.0,97,0.00,,OVC018,0.00,18.00,VWS V14.00,2013-10-04 11:00:00,
2013-10-04 08:00:00,61.8,60.9,30.15,North,6,0.0,0.0,97,0.00,,OVC018,0.00,183.00,VWS V14.00,2013-10-04 12:00:00,
2013-10-04 09:00:00,69.3,65.3,30.15,North,1,0.0,1.0,87,0.00,,OVC018,0.00,362.00,VWS V14.00,2013-10-04 13:00:00,
2013-10-04 10:00:00,76.8,66.3,30.14,North,8,0.0,0.0,70,0.00,,OVC018,0.00,527.00,VWS V14.00,2013-10-04 14:00:00,
2013-10-04 11:00:00,80.1,65.4,30.13,North,1,3.0,4.0,61,0.00,,OVC018,0.00,659.00,VWS V14.00,2013-10-04 15:00:00,
2013-10-04 12:00:00,83.1,65.8,30.11,SW,221,0.0,4.0,56,0.00,,OVC018,0.00,733.00,VWS V14.00,2013-10-04 16:00:00,
2013-10-04 14:00:00,84.4,63.8,30.06,ENE,61,0.0,0.0,50,0.00,,OVC018,0.00,772.00,VWS V14.00,2013-10-04 18:00:00,
2013-10-04 15:00:00,86.3,64.3,30.06,West,264,1.0,3.0,48,0.00,,OVC018,0.00,629.00,VWS V14.00,2013-10-04 19:00:00,
2013-10-04 16:00:00,85.9,64.5,30.05,ESE,112,0.0,1.0,49,0.00,,OVC018,0.00,457.00,VWS V14.00,2013-10-04 20:00:00,
2013-10-04 17:00:00,86.5,67.3,30.05,ENE,68,0.0,0.0,53,0.00,,OVC018,0.00,220.00,VWS V14.00,2013-10-04 21:00:00,
2013-10-04 18:00:00,78.0,67.0,30.06,SW,224,0.0,0.0,69,0.00,,OVC018,0.00,18.00,VWS V14.00,2013-10-04 22:00:00,
2013-10-04 19:00:00,72.0,65.5,30.09,WSW,250,0.0,0.0,80,0.00,,OVC018,0.00,0.00,VWS V14.00,2013-10-04 23:00:00,
2013-10-04 20:00:00,68.8,64.8,30.10,WSW,250,0.0,0.0,87,0.00,,OVC018,0.00,0.00,VWS V14.00,2013-10-05 00:00:00,
2013-10-04 21:00:00,66.5,63.8,30.10,WSW,250,0.0,0.0,91,0.00,,OVC018,0.00,0.00,VWS V14.00,2013-10-05 01:00:00,
2013-10-04 22:00:00,64.9,62.8,30.09,WSW,250,0.0,0.0,93,0.00,,OVC018,0.00,0.00,VWS V14.00,2013-10-05 02:00:00,
2013-10-04 23:00:00,63.6,62.2,30.09,WSW,250,0.0,0.0,95,0.00,,OVC018,0.00,0.00,VWS V14.00,2013-10-05 03:00:00,